INTELSAT 15 (IS-15)

Last updated on Jan. 22, 2021, 6:26 a.m. UTC

1 36106U 09067A   21021.78912660 -.00000175  00000-0  00000-0 0  9997
2 36106   0.0134  64.4762 0002298 242.2210 183.8772  1.00272161 21525
UTC
Height (km)
Latitude
Longitude
Inclination
Orbital Period
UTC large
Height (km)
Speed (km/s)
/
Latitude / Longitude
Inclination (degrees)
Orbital Period (minutes)
Azimuth
Elevation
Range (km)
Doppler Factor
iOS Compass Heading
iOS Angle

Next 30 passes for location: Hong Kong

Rise time Rise Azimuth (degrees) Set time Set Azimuth (degrees) Duration Max altitude (degrees)

No matching passes for this satellites